Renton, WA

3:20 AM PST on November 19, 2017 (GMT -0800)
Renton Municipal

Weather History for KRNT - December, 2012

Change the Weather History Date:

Thursday, December 6, 2012

  Actual Average Record
Temperature  
Mean Temperature 46 °F -  
Max Temperature 46 °F 46 °F 57 °F (2015)
Min Temperature 46 °F 37 °F 19 °F (2013)
Degree Days  
Heating Degree Days 19    
Moisture  
Dew Point 39 °F    
Average Humidity 75    
Maximum Humidity 83    
Minimum Humidity 68    
Precipitation  
Precipitation 0.03 in - - ()
Sea Level Pressure  
Sea Level Pressure 30.12 in    
Wind  
Wind Speed 7 mph (SSE)    
Max Wind Speed 13 mph    
Max Gust Speed 23 mph    
Visibility 10 miles    
Events Rain    
Averages and records for this station are not official NWS values.
T = Trace of Precipitation, MM = Missing Value Source: NWS Daily Summary

Daily Weather History Graph

Daily Weather History Graph

Search for Another Location

Airport or City:

Trip Planner

Search our weather history database for the weather conditions in past years. The results will help you decide how hot, cold, wet, or windy it might be!

Date:

Astronomy

Dec. 06, 2012 Rise Set
Actual Time 7:42 AM PST 4:18 PM PST
Civil Twilight 7:06 AM PST 4:53 PM PST
Nautical Twilight 6:27 AM PST 5:32 PM PST
Astronomical Twilight 5:50 AM PST 6:09 PM PST
Moon No Moon Rise 12:12 PM PST (12/6)
Length of Visible Light 9h 46m
Length of Day
8h 35m
Waning Gibbous, 48% of the Moon is Illuminated
Dec 6
Waning Gibbous
Dec 13
New
Dec 19
First Quarter
Dec 28
Full
Jan 4
Last Quarter

Hourly Weather History & Observations

Time (PST) Temp. Windchill Dew Point Humidity Pressure Visibility Wind Dir Wind Speed Gust Speed Precip Events Conditions
12:53 AM 46.0 °F 44.8 °F 37.9 °F 73% 30.20 in 10.0 mi SSE 3.5 mph - N/A   Overcast
1:53 AM 46.0 °F 43.1 °F 37.0 °F 71% 30.19 in 10.0 mi SSE 5.8 mph - 0.00 in   Overcast
2:50 AM 46.4 °F 42.9 °F 37.4 °F 71% 30.18 in 10.0 mi SSE 6.9 mph - 0.00 in Rain Light Rain
2:53 AM 46.0 °F 43.1 °F 37.9 °F 73% 30.19 in 10.0 mi SSE 5.8 mph - 0.00 in Rain Light Rain
3:13 AM 46.4 °F 42.9 °F 37.4 °F 71% 30.17 in 10.0 mi SSE 6.9 mph - 0.00 in   Mostly Cloudy
3:53 AM 46.0 °F 43.1 °F 37.9 °F 73% 30.18 in 10.0 mi SSE 5.8 mph - 0.00 in   Overcast
4:36 AM 46.4 °F 42.9 °F 37.4 °F 71% 30.15 in 10.0 mi SSE 6.9 mph - N/A   Overcast
4:53 AM 46.0 °F 43.9 °F 37.9 °F 73% 30.16 in 10.0 mi SE 4.6 mph - 0.00 in Rain Light Rain
5:53 AM 46.0 °F 41.0 °F 37.9 °F 73% 30.14 in 10.0 mi South 10.4 mph - 0.00 in   Overcast
6:14 AM 46.4 °F 41.1 °F 37.4 °F 71% 30.13 in 10.0 mi South 11.5 mph - N/A   Overcast
6:53 AM 46.9 °F - 37.0 °F 68% 30.14 in 10.0 mi SSE 9.2 mph - N/A   Overcast
7:53 AM 46.9 °F - 37.9 °F 71% 30.13 in 10.0 mi South 6.9 mph 17.3 mph 0.00 in Rain Light Rain
8:15 AM 46.4 °F 41.9 °F 37.4 °F 71% 30.11 in 9.0 mi SSE 9.2 mph - 0.00 in Rain Light Rain
8:53 AM 46.9 °F - 37.9 °F 71% 30.13 in 10.0 mi SE 4.6 mph - 0.00 in Rain Light Rain
9:53 AM 46.9 °F - 39.0 °F 74% 30.12 in 10.0 mi SSE 9.2 mph - 0.00 in Rain Light Rain
10:53 AM 46.9 °F - 39.9 °F 77% 30.13 in 10.0 mi South 10.4 mph - 0.01 in Rain Light Rain
11:53 AM 46.0 °F 41.4 °F 41.0 °F 83% 30.11 in 7.0 mi South 9.2 mph - 0.00 in Rain Light Rain
12:24 PM 46.4 °F 40.7 °F 41.0 °F 81% 30.07 in 10.0 mi SSE 12.7 mph 23.0 mph 0.01 in Rain Light Rain
12:53 PM 46.9 °F - 41.0 °F 80% 30.08 in 10.0 mi South 11.5 mph 19.6 mph 0.01 in   Overcast
1:53 PM 46.9 °F - 39.9 °F 77% 30.07 in 10.0 mi South 10.4 mph - N/A   Mostly Cloudy
2:53 PM 46.9 °F - 41.0 °F 80% 30.07 in 10.0 mi SSE 10.4 mph - 0.00 in Rain Light Rain
3:04 PM 46.4 °F 42.4 °F 41.0 °F 81% 30.05 in 10.0 mi South 8.1 mph 17.3 mph 0.00 in Rain Light Rain
3:53 PM 46.9 °F - 41.0 °F 80% 30.07 in 10.0 mi SSE 6.9 mph - 0.00 in   Overcast
4:53 PM 46.9 °F - 41.0 °F 80% 30.08 in 10.0 mi SSE 3.5 mph - N/A   Overcast
5:53 PM 46.9 °F - 39.0 °F 74% 30.09 in 10.0 mi SW 10.4 mph - N/A   Overcast
6:53 PM 46.9 °F - 39.0 °F 74% 30.10 in 10.0 mi South 4.6 mph - N/A   Overcast
7:53 PM 46.9 °F - 39.9 °F 77% 30.12 in 10.0 mi South 5.8 mph - 0.01 in   Overcast
8:53 PM 46.9 °F - 39.9 °F 77% 30.13 in 10.0 mi Variable 3.5 mph - N/A   Overcast
9:22 PM 46.4 °F 43.5 °F 39.2 °F 76% 30.12 in 10.0 mi SSE 5.8 mph - N/A   Overcast
9:53 PM 46.9 °F - 39.9 °F 77% 30.13 in 10.0 mi SSE 6.9 mph - N/A   Overcast
10:11 PM 46.4 °F 42.9 °F 39.2 °F 76% 30.11 in 10.0 mi South 6.9 mph - N/A   Overcast
10:53 PM 46.9 °F - 39.9 °F 77% 30.13 in 10.0 mi SSE 6.9 mph - N/A   Overcast
11:53 PM 46.0 °F 41.4 °F 39.9 °F 79% 30.12 in 10.0 mi SSE 9.2 mph - N/A   Overcast